When you browse on this site, cookies collect data to enhance your experience and personalize the content and advertising you see.
Visit our Privacy Policy to learn more. By continuing to use the site, you agree to this use of cookies and data.
  • En España
  • Lista de países
  • Para 7 días
  • Temperatura del agua
  • Mapa Satelital
  • El tiempo en el mapa
  • Informadores
  • user-avatar
    Iniciar sesión

    Tiempo cada hora Madras

    Hoy, 17 Julio, Miércoles

    Tiempo Temperatura Precipitaciones Viento Presión Humedad
    00:00 +33°C° 0 mm 5 mps 752 mmHg 66%
    01:00 +33°C° 0 mm 5 mps 752 mmHg 66%
    02:00 +33°C° 0 mm 5 mps 752 mmHg 65%
    03:00 +33°C° 0.4 mm 4 mps 752 mmHg 66%
    04:00 +31°C° 0.4 mm 3 mps 752 mmHg 66%
    05:00 +31°C° 0 mm 2 mps 752 mmHg 70%
    06:00 +32°C° 0.1 mm 2 mps 752 mmHg 66%
    07:00 +34°C° 0.1 mm 3 mps 752 mmHg 62%
    08:00 +34°C° 0.1 mm 3 mps 752 mmHg 58%
    09:00 +35°C° 0 mm 3 mps 752 mmHg 54%
    10:00 +37°C° 0 mm 2 mps 753 mmHg 50%
    11:00 +37°C° 0 mm 2 mps 753 mmHg 52%
    12:00 +37°C° 0 mm 2 mps 752 mmHg 49%
    13:00 +38°C° 0 mm 3 mps 751 mmHg 46%
    14:00 +39°C° 0 mm 3 mps 750 mmHg 43%
    15:00 +38°C° 0 mm 3 mps 750 mmHg 47%
    16:00 +36°C° 0 mm 4 mps 750 mmHg 52%
    17:00 +35°C° 0 mm 5 mps 750 mmHg 56%
    18:00 +35°C° 0 mm 4 mps 750 mmHg 60%
    19:00 +34°C° 0 mm 4 mps 751 mmHg 64%
    20:00 +33°C° 0 mm 4 mps 751 mmHg 68%
    21:00 +33°C° 0.1 mm 4 mps 751 mmHg 68%
    22:00 +33°C° 0.1 mm 4 mps 751 mmHg 67%
    23:00 +33°C° 0.1 mm 4 mps 752 mmHg 67%

    Mañana, 18 Julio, Jueves

    Tiempo Temperatura Precipitaciones Viento Presión Humedad
    00:00 +32°C° 0.2 mm 5 mps 751 mmHg 68%
    01:00 +32°C° 0.2 mm 5 mps 751 mmHg 69%
    02:00 +32°C° 0.2 mm 5 mps 750 mmHg 69%
    03:00 +32°C° 0.4 mm 4 mps 750 mmHg 71%
    04:00 +32°C° 0.4 mm 4 mps 750 mmHg 72%
    05:00 +32°C° 0.4 mm 4 mps 750 mmHg 73%
    06:00 +32°C° 0.8 mm 4 mps 751 mmHg 70%
    07:00 +32°C° 0.8 mm 4 mps 751 mmHg 68%
    08:00 +33°C° 0.8 mm 5 mps 752 mmHg 66%
    09:00 +34°C° 0 mm 4 mps 752 mmHg 60%
    10:00 +36°C° 0 mm 4 mps 752 mmHg 55%
    11:00 +37°C° 0 mm 4 mps 752 mmHg 50%
    12:00 +38°C° 0.3 mm 4 mps 751 mmHg 48%
    13:00 +38°C° 0.3 mm 4 mps 750 mmHg 46%
    14:00 +40°C° 0.3 mm 4 mps 750 mmHg 44%
    15:00 +38°C° 0.6 mm 4 mps 749 mmHg 47%
    16:00 +37°C° 0.6 mm 3 mps 749 mmHg 49%
    17:00 +36°C° 0.6 mm 3 mps 749 mmHg 52%
    18:00 +35°C° 0.6 mm 3 mps 749 mmHg 56%
    19:00 +34°C° 0.6 mm 3 mps 750 mmHg 61%
    20:00 +32°C° 0.6 mm 2 mps 750 mmHg 66%
    21:00 +31°C° 0.3 mm 2 mps 751 mmHg 66%
    22:00 +31°C° 0.3 mm 2 mps 751 mmHg 66%
    23:00 +31°C° 0.3 mm 2 mps 751 mmHg 67%

    Pasado mañana, 19 Julio, Viernes

    Tiempo Temperatura Precipitaciones Viento Presión Humedad
    00:00 +31°C° 0.1 mm 2 mps 750 mmHg 68%
    01:00 +30°C° 0.1 mm 2 mps 750 mmHg 70%
    02:00 +30°C° 0.1 mm 2 mps 749 mmHg 72%
    03:00 +30°C° 0 mm 2 mps 749 mmHg 72%
    04:00 +30°C° 0 mm 2 mps 749 mmHg 72%
    05:00 +30°C° 0 mm 2 mps 749 mmHg 72%
    06:00 +31°C° 0 mm 3 mps 750 mmHg 69%
    07:00 +33°C° 0 mm 4 mps 750 mmHg 65%
    08:00 +34°C° 0 mm 4 mps 751 mmHg 61%
    09:00 +35°C° 0 mm 4 mps 751 mmHg 56%
    10:00 +36°C° 0 mm 3 mps 751 mmHg 52%
    11:00 +38°C° 0 mm 2 mps 750 mmHg 47%
    12:00 +38°C° 0 mm 2 mps 750 mmHg 47%
    13:00 +38°C° 0 mm 3 mps 749 mmHg 47%
    14:00 +37°C° 0 mm 3 mps 749 mmHg 47%
    15:00 +36°C° 0.6 mm 3 mps 748 mmHg 55%
    16:00 +34°C° 0.6 mm 3 mps 748 mmHg 63%
    17:00 +32°C° 0.6 mm 4 mps 748 mmHg 71%
    18:00 +30°C° 1.7 mm 4 mps 749 mmHg 76%
    19:00 +30°C° 1.7 mm 5 mps 749 mmHg 81%
    20:00 +29°C° 1.7 mm 6 mps 750 mmHg 85%
    21:00 +29°C° 0.6 mm 6 mps 750 mmHg 82%
    22:00 +29°C° 0.6 mm 5 mps 750 mmHg 79%
    23:00 +29°C° 0.6 mm 5 mps 750 mmHg 76%

    20 Julio, Sábado

    Tiempo Temperatura Precipitaciones Viento Presión Humedad
    00:00 +29°C° 0.1 mm 5 mps 750 mmHg 77%
    01:00 +29°C° 0.1 mm 5 mps 749 mmHg 79%
    02:00 +29°C° 0.1 mm 5 mps 749 mmHg 80%
    03:00 +29°C° 0 mm 5 mps 749 mmHg 81%
    04:00 +29°C° 0 mm 5 mps 749 mmHg 81%
    05:00 +29°C° 0 mm 5 mps 749 mmHg 82%
    06:00 +30°C° 0.1 mm 5 mps 750 mmHg 76%
    07:00 +32°C° 0.1 mm 5 mps 750 mmHg 70%
    08:00 +33°C° 0.1 mm 5 mps 751 mmHg 64%
    09:00 +35°C° 0.2 mm 4 mps 751 mmHg 60%
    10:00 +36°C° 0.2 mm 3 mps 751 mmHg 56%
    11:00 +37°C° 0.2 mm 2 mps 751 mmHg 51%
    12:00 +37°C° 0.4 mm 3 mps 750 mmHg 52%
    13:00 +36°C° 0.4 mm 5 mps 749 mmHg 53%
    14:00 +36°C° 0.4 mm 6 mps 749 mmHg 54%
    15:00 +36°C° 0.5 mm 6 mps 748 mmHg 57%
    16:00 +35°C° 0.5 mm 5 mps 748 mmHg 60%
    17:00 +35°C° 0.5 mm 5 mps 748 mmHg 62%
    18:00 +34°C° 0.8 mm 5 mps 749 mmHg 66%
    19:00 +33°C° 0.8 mm 4 mps 749 mmHg 71%
    20:00 +32°C° 0.8 mm 4 mps 750 mmHg 75%
    21:00 +32°C° 1.2 mm 4 mps 750 mmHg 76%
    22:00 +30°C° 1.2 mm 4 mps 750 mmHg 77%
    23:00 +30°C° 1.2 mm 4 mps 750 mmHg 78%

    21 Julio, Domingo

    Tiempo Temperatura Precipitaciones Viento Presión Humedad
    00:00 +30°C° 0.7 mm 4 mps 750 mmHg 78%
    01:00 +30°C° 0.7 mm 4 mps 749 mmHg 78%
    02:00 +30°C° 0.7 mm 3 mps 749 mmHg 78%
    03:00 +30°C° 1.1 mm 4 mps 749 mmHg 78%
    04:00 +30°C° 1.1 mm 4 mps 749 mmHg 77%
    05:00 +30°C° 1.1 mm 5 mps 749 mmHg 76%
    06:00 +30°C° 0.3 mm 5 mps 750 mmHg 75%
    07:00 +30°C° 0.3 mm 5 mps 750 mmHg 74%
    08:00 +32°C° 0.3 mm 6 mps 751 mmHg 73%
    09:00 +33°C° 0 mm 6 mps 751 mmHg 67%
    10:00 +34°C° 0 mm 5 mps 750 mmHg 62%
    11:00 +35°C° 0 mm 5 mps 750 mmHg 56%
    12:00 +35°C° 0.1 mm 5 mps 750 mmHg 57%
    13:00 +35°C° 0.1 mm 6 mps 749 mmHg 58%
    14:00 +35°C° 0.1 mm 6 mps 749 mmHg 59%
    15:00 +34°C° 0 mm 7 mps 749 mmHg 62%
    16:00 +33°C° 0 mm 7 mps 749 mmHg 65%
    17:00 +33°C° 0 mm 7 mps 749 mmHg 68%
    18:00 +32°C° 0.3 mm 7 mps 749 mmHg 70%
    19:00 +32°C° 0.3 mm 6 mps 750 mmHg 71%
    20:00 +32°C° 0.3 mm 6 mps 750 mmHg 73%
    21:00 +30°C° 0.9 mm 6 mps 750 mmHg 74%
    22:00 +30°C° 0.9 mm 7 mps 751 mmHg 74%
    23:00 +30°C° 0.9 mm 7 mps 751 mmHg 75%

    22 Julio, Lunes

    Tiempo Temperatura Precipitaciones Viento Presión Humedad
    00:00 +30°C° 0.4 mm 7 mps 750 mmHg 77%
    01:00 +29°C° 0.4 mm 7 mps 750 mmHg 79%
    02:00 +29°C° 0.4 mm 7 mps 749 mmHg 81%
    03:00 +28°C° 0.1 mm 6 mps 749 mmHg 82%
    04:00 +28°C° 0.1 mm 6 mps 749 mmHg 82%
    05:00 +28°C° 0.1 mm 5 mps 749 mmHg 83%
    06:00 +29°C° 0.1 mm 6 mps 750 mmHg 80%
    07:00 +29°C° 0.1 mm 6 mps 750 mmHg 77%
    08:00 +30°C° 0.1 mm 6 mps 751 mmHg 75%
    09:00 +32°C° 0.1 mm 6 mps 751 mmHg 70%
    10:00 +33°C° 0.1 mm 5 mps 751 mmHg 65%
    11:00 +34°C° 0.1 mm 5 mps 751 mmHg 60%
    12:00 +34°C° 0 mm 5 mps 750 mmHg 60%
    13:00 +34°C° 0 mm 5 mps 749 mmHg 60%
    14:00 +34°C° 0 mm 4 mps 749 mmHg 60%
    15:00 +34°C° 0 mm 4 mps 749 mmHg 62%
    16:00 +34°C° 0 mm 4 mps 749 mmHg 64%
    17:00 +33°C° 0 mm 4 mps 748 mmHg 66%
    18:00 +33°C° 0.1 mm 4 mps 749 mmHg 67%
    19:00 +32°C° 0.1 mm 4 mps 749 mmHg 68%
    20:00 +32°C° 0.1 mm 4 mps 750 mmHg 69%
    21:00 +32°C° 0 mm 4 mps 750 mmHg 68%
    22:00 +32°C° 0 mm 4 mps 750 mmHg 68%
    23:00 +32°C° 0 mm 4 mps 750 mmHg 68%
    Mostrar más